Regional Weather Roundup
Issued by NWS State College, PA

Home | Current Version | Previous Version | Text Only | Print | Product List | Glossary On
Versions: 1 2 3 4 5 6 7 8 9 10 11 12 13 14 15 16 17 18 19 20 21 22 23 24 25 26 27 28 29 30 31 32 33 34 35 36 37 38 39 40 41 42 43 44 45 46 47 48 49 50
000
ASUS41 KCTP 171603
RWRCTP

REGIONAL WEATHER ROUNDUP
NATIONAL WEATHER SERVICE STATE COLLEGE PA
1100 AM EST TUE JAN 17 2017

Note: "fair" indicates few or no clouds below 12,000 feet with no
significant weather and/or obstructions to visibility.

* = STATION THAT DOES NOT REPORT PRECIPITATION /E.G. RAIN...SNOW...ETC/
    THUNDER OR FOG.

PAZ002>004-007>009-013>016-020>023-029>032-171700-
WESTERN PENNSYLVANIA

CITY           SKY/WX    TMP DP  RH WIND       PRES   REMARKS
ERIE           LGT RAIN  50  47  89 S16       29.84F
MEADVILLE      CLOUDY    49  47  93 VRB7      29.87F FOG
FRANKLIN*        N/A     48  46  93 S10       29.90F
NEW CASTLE     CLOUDY    52  51  97 S5        29.89F
BEAVER COUNTY  CLOUDY    52  52 100 S10G16    29.89F
BUTLER*        CLOUDY    52  48  87 S9        29.94F
PITTSBURGH INT CLOUDY    56  54  93 S10       29.90F
PITTSBURGH     CLOUDY    55  51  86 S12       29.92F
INDIANA*       CLOUDY    52  50  93 SE6       29.97F
LATROBE        PTSUNNY   57  55  94 SW12G21   29.96F
WASHINGTON CO* CLOUDY    55  54  94 S13G18    29.93F
$$

PAZ004>006-010>012-017>019-024>028-033>037-041-042-045-046-049>053-171700-
CENTRAL PENNSYLVANIA

CITY           SKY/WX    TMP DP  RH WIND       PRES   REMARKS
BRADFORD       LGT RAIN  41  41 100 VRB7      29.93S FOG
DUBOIS         LGT RAIN  40  38  93 SE9       29.95F VSB 1
CLEARFIELD     LGT RAIN  35  35 100 N7        30.01S VSB 3/4
JOHNSTOWN      LGT RAIN  52  50  93 SW9G20    29.97F
ALTOONA        CLOUDY    35  34  96 NE6       30.05F FOG
STATE COLLEGE  FOG       32  32 100 CALM      30.06F VSB 1/8
WILLIAMSPORT   CLOUDY    36  32  85 N3        30.11S FOG
SELINSGROVE    CLOUDY    34  34 100 E6        30.12F FOG
FT INDIANTOWN  CLOUDY    35  35 100 CALM      30.16F FOG
CAPITAL CITY   CLOUDY    38  32  79 E7        30.14F HAZE
HARRISBURG     CLOUDY    36  34  92 SE5       30.14F FOG
YORK           CLOUDY    39  39 100 SE7       30.13F FOG
$$

PAZ038>040-043-044-047-048-054-055-060>062-067>071-171700-
EASTERN PENNSYLVANIA

CITY           SKY/WX    TMP DP  RH WIND       PRES   REMARKS
SCRANTON       LGT RAIN  36  34  92 NE6       30.09F FOG
MOUNT POCONO   MIX PCPN  32  30  92 SE5       30.10F FOG
ALLENTOWN      LGT RAIN  37  32  82 E5        30.18F
QUAKERTOWN*    CLOUDY    36  32  87 CALM      30.19F
READING        CLOUDY    37  31  78 CALM      30.16F
LANCASTER      CLOUDY    39  37  92 SE7       30.17F FOG
COATESVILLE    CLOUDY    37  36  93 CALM      30.17F FOG
POTTSTOWN      CLOUDY    38  32  79 VRB3      30.19F HAZE
BLUE BELL      CLOUDY    37  34  87 CALM      30.18F
DOYLESTOWN     LGT RAIN  39  32  76 SE5       30.18F
WILLOW GROVE   NOT AVBL
NORTH PHILA    LGT RAIN  42  34  73 VRB3      30.23S
PHILADELPHIA   LGT RAIN  41  36  82 S3        30.21F
$$



USA.gov is the U.S. government's official web portal to all federal, state and local government web resources and services.